{"data":{"norad_id":67951,"intl_designator":"2026-037V","name":"STARLINK-36897","alt_names":[],"object_type":"PAYLOAD","status":"ACTIVE","operator":null,"country":"US","launch_date":"2026-02-24","launch_site_code":"AFETR","launch_vehicle":null,"mission":null,"orbit_class":"UNKNOWN","rcs_meters":null,"size_class":null,"mass_kg":null,"dimensions":null,"purposes":["comms"],"wikipedia_slug":null,"has_3d_model":false,"image_url":null,"decayed_at":null,"tle_current":{"epoch":"2026-05-25T04:06:44.362656Z","epoch_age_seconds":59680,"freshness":"FRESH","line1":"1 67951U 26037V   26145.17134679  .00011032  00000+0  40965-3 0  9995","line2":"2 67951  43.0007 119.1301 0001313 274.5531  85.5170 15.27591677 15030","mean_motion":15.27591677,"eccentricity":0.0001313,"inclination_deg":43.0007,"raan_deg":119.1301,"arg_perigee_deg":274.5531,"mean_anomaly_deg":85.517,"bstar":0.00040965,"rev_number":1503,"period_min":94.266028133119,"perigee_km":482.11326198009,"apogee_km":483.91500026712,"semimajor_km":6861.1511311236,"source":"CELESTRAK","updated_at":"2026-05-25T13:38:21.770310Z"}}}